EW8450 Weather Reports


time (UTC)temp
F
wind
direction
speed
knots
gust
knots
rain 1hr
in
rain 24hr
in
rain mn
in
humidity
%
barometer
mb
20260507012433 56 0 0.9 3.5 0.00 0.00 0.00 78 1019.1
20260507011704 56 172 0.0 3.5 0.00 0.00 0.00 77 1019.1
20260507011425 56 0 0.0 0.0 0.00 0.00 0.00 78 1019.1
20260507010703 56 0 0.0 0.0 0.00 0.00 0.00 80 1019.1
20260507010203 56 0 0.0 0.0 0.00 0.00 0.00 79 1019.2
20260507005703 56 0 0.0 0.0 0.00 0.00 0.00 79 1019.2
20260507005436 56 0 0.0 0.0 0.00 0.00 0.00 79 1019.2
20260507004648 56 0 0.9 2.6 0.00 0.00 0.00 77 1019.3
20260507004147 56 0 0.9 2.6 0.00 0.00 0.00 78 1019.3
20260507003647 56 0 0.9 3.5 0.00 0.00 0.00 77 1019.3
20260507003147 56 198 0.9 3.5 0.00 0.00 0.00 77 1019.3
20260507002648 56 173 0.0 1.7 0.00 0.00 0.00 77 1019.2
20260507002148 56 0 0.9 2.6 0.00 0.00 0.00 76 1019.3
20260507001647 56 329 1.7 4.3 0.00 0.00 0.00 77 1019.3
20260507001148 56 197 1.7 4.3 0.00 0.00 0.00 76 1019.3
20260507000648 56 187 0.9 3.5 0.00 0.00 0.00 77 1019.3
20260507000148 56 184 1.7 3.5 0.00 0.00 0.00 77 1019.3
20260506235632 56 185 1.7 3.5 0.00 0.00 0.00 76 1019.3
20260506235134 56 214 1.7 3.5 0.00 0.00 0.00 76 1019.3
20260506234633 56 168 1.7 3.5 0.00 0.00 0.00 77 1019.3
20260506234403 56 188 1.7 3.5 0.00 0.00 0.00 77 1019.2
20260506233637 56 179 0.9 3.5 0.00 0.00 0.00 79 1019.2
20260506233134 56 184 1.7 3.5 0.00 0.00 0.00 77 1019.3
20260506232632 56 177 1.7 3.5 0.00 0.00 0.00 77 1019.3
20260506232131 56 188 0.9 3.5 0.00 0.00 0.00 78 1019.4
20260506231631 56 174 0.9 4.3 0.00 0.00 0.00 79 1019.4
20260506231131 55 0 1.7 5.2 0.00 0.00 0.00 78 1019.4
20260506230627 55 185 1.7 5.2 0.00 0.00 0.00 78 1019.4
20260506230119 55 166 1.7 4.3 0.00 0.00 0.00 79 1019.5
20260506225619 55 168 2.6 5.2 0.00 0.00 0.00 78 1019.4
20260506225119 55 172 1.7 5.2 0.00 0.00 0.00 78 1019.4
20260506224851 55 0 1.7 5.2 0.00 0.00 0.00 79 1019.4
20260506224120 55 178 1.7 5.2 0.00 0.00 0.00 79 1019.5
20260506223627 55 0 1.7 5.2 0.00 0.00 0.00 79 1019.5
20260506222906 55 143 2.6 5.2 0.00 0.00 0.00 79 1019.5
20260506222119 55 183 1.7 5.2 0.00 0.00 0.00 79 1019.6
20260506221620 56 169 0.9 4.3 0.00 0.00 0.00 80 1019.6
20260506221120 55 0 0.9 2.6 0.00 0.00 0.00 80 1019.6
20260506220620 55 191 0.0 2.6 0.00 0.00 0.00 81 1019.6
20260506220120 55 0 0.9 4.3 0.00 0.00 0.00 81 1019.6
20260506215609 55 186 0.9 4.3 0.00 0.00 0.00 80 1019.6
20260506215336 55 190 0.9 2.6 0.00 0.00 0.00 80 1019.6
20260506214604 55 179 0.9 4.3 0.00 0.00 0.00 81 1019.6
20260506214105 55 170 0.9 4.3 0.00 0.00 0.00 81 1019.6
20260506213602 55 0 0.0 0.9 0.00 0.00 0.00 83 1019.6
20260506213105 55 0 0.0 2.6 0.00 0.00 0.00 82 1019.6
20260506212102 55 180 1.7 3.5 0.00 0.00 0.00 83 1019.6
20260506211601 55 182 1.7 3.5 0.00 0.00 0.00 84 1019.6
20260506211101 55 174 0.9 3.5 0.00 0.00 0.00 83 1019.7
20260506210836 55 184 0.9 3.5 0.00 0.00 0.00 84 1019.6
20260506210104 55 0 0.9 3.5 0.00 0.00 0.00 85 1019.6
20260506205603 55 172 0.0 2.6 0.00 0.00 0.00 84 1019.5
20260506205103 55 0 0.9 1.7 0.00 0.00 0.00 85 1019.6
20260506204603 55 72 0.0 1.7 0.00 0.00 0.00 84 1019.6
20260506204102 55 0 0.0 2.6 0.00 0.00 0.00 84 1019.5
20260506203602 55 0 0.9 2.6 0.00 0.00 0.00 84 1019.5
20260506203102 55 0 0.9 2.6 0.00 0.00 0.00 85 1019.5
20260506202602 55 144 0.0 2.6 0.00 0.00 0.00 86 1019.5
20260506202102 55 0 0.0 1.7 0.00 0.00 0.00 86 1019.5
20260506201602 55 1 0.0 1.7 0.00 0.00 0.00 86 1019.4
20260506201101 55 0 0.0 0.9 0.00 0.00 0.00 87 1019.4
20260506200602 55 0 0.0 0.0 0.00 0.00 0.00 87 1019.4
20260506195602 55 0 0.0 1.7 0.00 0.00 0.00 87 1019.3
20260506195338 55 0 0.0 1.7 0.00 0.00 0.00 87 1019.3
20260506194605 55 0 0.0 1.7 0.00 0.00 0.00 88 1019.3
20260506194053 55 350 0.0 1.7 0.00 0.00 0.00 87 1019.3
20260506193827 55 0 0.0 1.7 0.00 0.00 0.00 87 1019.3
20260506193052 55 0 0.0 1.7 0.00 0.00 0.00 87 1019.2
20260506192551 55 0 0.0 0.0 0.00 0.00 0.00 87 1019.2
20260506192051 55 0 0.0 0.9 0.00 0.00 0.00 87 1019.1
20260506191551 55 0 0.0 0.9 0.00 0.00 0.00 87 1019.1
20260506191052 55 0 0.0 1.7 0.00 0.00 0.00 87 1019.1
20260506190824 55 0 0.9 1.7 0.00 0.00 0.00 87 1019.1
20260506190052 55 39 0.9 1.7 0.00 0.00 0.00 87 1019.2
20260506185552 55 20 0.0 1.7 0.00 0.00 0.00 87 1019.3
20260506185038 55 180 0.0 1.7 0.00 0.00 0.00 87 1019.2
20260506184530 54 172 0.0 1.7 0.00 0.00 0.00 88 1019.2
20260506184031 54 0 0.0 1.7 0.00 0.00 0.00 88 1019.2
20260506183530 54 0 0.9 2.6 0.00 0.00 0.00 88 1019.2
20260506183030 54 0 0.9 3.5 0.00 0.00 0.00 88 1019.2
20260506182530 54 15 1.7 3.5 0.00 0.00 0.00 88 1019.2
20260506182029 54 170 2.6 3.5 0.00 0.00 0.00 88 1019.1
20260506181806 54 167 1.7 4.3 0.00 0.00 0.00 88 1019.0
20260506181031 54 171 2.6 4.3 0.00 0.00 0.00 88 1018.9
20260506180531 54 161 1.7 3.5 0.00 0.00 0.00 87 1018.8
20260506180031 54 163 1.7 3.5 0.00 0.00 0.00 87 1018.9
20260506175530 55 189 1.7 3.5 0.00 0.00 0.00 87 1018.9
20260506175029 55 172 1.7 3.5 0.00 0.00 0.00 86 1018.8
20260506174529 55 201 1.7 2.6 0.00 0.00 0.00 87 1018.8
20260506174031 55 195 1.7 2.6 0.00 0.00 0.00 87 1019.0
20260506173530 55 0 1.7 3.5 0.00 0.00 0.00 87 1019.0
20260506173305 55 186 1.7 3.5 0.00 0.00 0.00 87 1019.0
20260506172529 55 187 0.9 3.5 0.00 0.00 0.00 87 1019.1
20260506172030 55 0 0.9 3.5 0.00 0.00 0.00 86 1019.1
20260506171530 55 175 0.9 3.5 0.00 0.00 0.00 86 1019.0
20260506171030 55 0 0.0 2.6 0.00 0.00 0.00 87 1019.0
20260506170803 55 162 0.0 2.6 0.00 0.00 0.00 87 1019.0
20260506170029 55 0 0.9 2.6 0.00 0.00 0.00 88 1018.9
20260506165758 55 162 1.7 4.3 0.00 0.00 0.00 87 1018.8
20260506165014 55 155 1.7 5.2 0.00 0.00 0.00 88 1018.8
20260506164512 55 163 2.6 5.2 0.00 0.00 0.00 87 1018.7
20260506164007 55 158 2.6 4.3 0.00 0.00 0.00 88 1018.6
20260506163507 55 177 2.6 4.3 0.00 0.00 0.00 87 1018.5
20260506163337 54 157 2.6 5.2 0.00 0.00 0.00 88 1018.4
20260506162007 54 0 1.7 3.5 0.00 0.00 0.00 89 1018.3
20260506161507 54 191 1.7 5.2 0.00 0.00 0.00 89 1018.3
20260506161007 54 0 2.6 6.1 0.00 0.00 0.00 89 1018.4
20260506160757 54 157 2.6 6.1 0.00 0.00 0.00 89 1018.4
20260506160301 54 193 1.7 5.2 0.00 0.00 0.00 88 1018.5
20260506155801 54 173 0.9 4.3 0.00 0.00 0.00 88 1018.5
20260506155008 54 176 0.9 3.5 0.00 0.00 0.00 89 1018.6
20260506154507 54 167 0.9 2.6 0.00 0.00 0.00 89 1018.7
20260506154006 54 0 1.7 4.3 0.00 0.00 0.00 90 1018.6
20260506153502 54 115 1.7 4.3 0.00 0.00 0.00 90 1018.5
20260506153255 54 171 1.7 4.3 0.00 0.00 0.00 90 1018.5
20260506152503 54 179 0.9 4.3 0.00 0.00 0.00 90 1018.5
20260506152001 54 171 0.9 4.3 0.00 0.00 0.00 91 1018.5
20260506151501 54 0 0.0 1.7 0.00 0.00 0.00 91 1018.4
20260506151001 54 217 0.0 3.5 0.00 0.00 0.00 91 1018.3
20260506150501 54 0 0.9 3.5 0.00 0.00 0.00 92 1018.4
20260506150002 54 173 0.9 3.5 0.00 0.00 0.00 91 1018.4
20260506145502 54 0 1.7 5.2 0.00 0.00 0.00 91 1018.4
20260506145002 54 179 1.7 5.2 0.00 0.00 0.00 91 1018.4
20260506144501 54 168 0.9 4.3 0.00 0.00 0.00 91 1018.5
20260506144252 54 0 0.9 3.5 0.00 0.00 0.00 91 1018.4
20260506143501 54 0 0.9 3.5 0.00 0.00 0.00 91 1018.4
20260506143002 54 0 0.0 1.7 0.00 0.00 0.00 91 1018.3
20260506142502 54 0 0.0 1.7 0.00 0.00 0.00 92 1018.1
20260506142002 54 0 0.0 3.5 0.00 0.00 0.00 92 1018.1
20260506141502 53 0 0.9 4.3 0.00 0.00 0.00 91 1018.2
20260506141002 54 0 1.7 4.3 0.00 0.00 0.00 91 1018.1
20260506140501 54 176 0.9 3.5 0.00 0.00 0.00 91 1018.2
20260506140002 54 170 0.9 4.3 0.00 0.00 0.00 90 1018.3
20260506135503 54 0 0.9 4.3 0.00 0.00 0.00 90 1018.2
20260506135002 54 0 0.0 2.6 0.00 0.00 0.00 90 1018.1
20260506134502 54 0 0.9 2.6 0.00 0.00 0.00 90 1018.2
20260506134003 54 0 0.9 3.5 0.00 0.00 0.00 90 1018.1
20260506133502 54 170 0.9 3.5 0.00 0.00 0.00 90 1018.1
20260506133003 54 170 0.9 2.6 0.00 0.00 0.00 90 1017.9
20260506132748 54 0 0.9 2.6 0.00 0.00 0.00 90 1018.0
20260506132002 54 0 0.9 4.3 0.00 0.00 0.00 90 1017.8
20260506131502 54 0 0.9 4.3 0.00 0.00 0.00 90 1017.5
20260506131002 54 0 0.0 2.6 0.00 0.00 0.00 90 1017.6
20260506130511 54 163 0.9 2.6 0.00 0.00 0.00 90 1017.7
20260506130011 54 161 0.9 3.5 0.00 0.00 0.00 90 1017.8
20260506125512 54 0 0.9 3.5 0.00 0.00 0.00 90 1017.7
20260506125008 54 186 0.9 3.5 0.00 0.00 0.00 90 1017.6
20260506124509 54 0 1.7 4.3 0.00 0.00 0.00 90 1017.6
20260506124010 54 175 1.7 5.2 0.00 0.00 0.00 89 1017.5
20260506123510 54 171 1.7 5.2 0.00 0.00 0.00 89 1017.4
20260506123258 54 183 1.7 3.5 0.00 0.00 0.00 89 1017.4
20260506122510 54 180 1.7 4.3 0.00 0.00 0.00 89 1017.4
20260506122010 54 180 1.7 4.3 0.00 0.00 0.00 88 1017.4
20260506121511 54 184 1.7 4.3 0.00 0.00 0.00 88 1017.5
20260506121011 54 170 1.7 4.3 0.00 0.00 0.00 88 1017.5
20260506120753 54 177 1.7 4.3 0.00 0.00 0.00 88 1017.4
20260506120006 54 0 0.9 3.5 0.00 0.00 0.00 88 1017.3
20260506115503 55 171 1.7 3.5 0.00 0.00 0.00 87 1017.2
20260506114954 55 0 1.7 4.3 0.00 0.00 0.00 87 1017.2
20260506114453 55 144 1.7 4.3 0.00 0.00 0.00 87 1017.2
20260506113953 55 156 1.7 4.3 0.00 0.00 0.00 87 1017.2
20260506113741 55 165 1.7 3.5 0.00 0.00 0.00 87 1017.2
20260506112954 55 0 0.9 3.5 0.00 0.00 0.00 87 1017.2
20260506112454 55 0 0.0 3.5 0.00 0.00 0.00 87 1017.1
20260506111954 55 0 1.7 5.2 0.00 0.00 0.00 86 1017.1
20260506111454 55 177 2.6 5.2 0.00 0.00 0.00 86 1017.1
20260506111239 55 168 1.7 5.2 0.00 0.00 0.00 86 1017.1
20260506110450 55 182 0.9 3.5 0.00 0.00 0.00 86 1017.1
20260506105958 55 0 0.0 2.6 0.00 0.00 0.00 87 1017.0
20260506105458 55 0 0.0 2.6 0.00 0.00 0.00 87 1017.0
20260506104958 55 0 0.0 1.7 0.00 0.00 0.00 87 1017.0
20260506104458 55 0 0.9 3.5 0.00 0.00 0.00 87 1016.9
20260506103959 55 0 0.9 3.5 0.00 0.00 0.00 87 1016.8
20260506103455 55 164 0.9 2.6 0.00 0.00 0.00 87 1016.8
20260506103025 55 0 0.0 2.6 0.00 0.00 0.00 87 1016.8
20260506102027 55 0 0.0 1.7 0.00 0.00 0.00 87 1016.7
20260506100953 55 0 0.0 3.5 0.00 0.00 0.00 87 1016.6
20260506100444 55 112 0.0 1.7 0.00 0.00 0.00 87 1016.6
20260506095944 55 0 0.0 2.6 0.00 0.00 0.00 87 1016.5
20260506095444 55 0 0.0 2.6 0.00 0.00 0.00 87 1016.5
20260506094944 55 0 0.9 2.6 0.00 0.00 0.00 86 1016.4
20260506094733 55 0 0.9 2.6 0.00 0.00 0.00 87 1016.4
20260506094228 55 346 0.9 2.6 0.00 0.00 0.00 87 1016.4
20260506093440 55 0 0.9 2.6 0.00 0.00 0.00 87 1016.4
20260506092940 55 0 0.9 2.6 0.00 0.00 0.00 87 1016.4
20260506092440 55 0 0.9 2.6 0.00 0.00 0.00 87 1016.3
20260506091940 55 343 0.9 2.6 0.00 0.00 0.00 86 1016.3
20260506091440 55 178 0.9 2.6 0.00 0.00 0.00 87 1016.2
20260506090940 55 172 1.7 4.3 0.00 0.00 0.00 87 1016.2
20260506090805 54 190 1.7 4.3 0.00 0.00 0.00 87 1016.2
20260506085437 54 188 0.9 2.6 0.00 0.00 0.00 89 1016.0
20260506084937 53 179 0.9 3.5 0.00 0.00 0.00 89 1016.0
20260506084437 53 354 0.9 3.5 0.00 0.00 0.00 91 1015.9
20260506083938 52 89 0.0 3.5 0.00 0.00 0.00 93 1015.9
20260506083438 52 0 0.0 3.5 0.00 0.00 0.00 95 1015.9
20260506082937 52 0 0.0 3.5 0.00 0.00 0.00 95 1015.9
20260506082437 51 0 0.0 0.9 0.00 0.00 0.00 95 1015.9
20260506081938 51 0 0.0 1.7 0.00 0.00 0.00 95 1015.9
20260506081439 51 0 0.0 1.7 0.00 0.00 0.00 95 1015.9
20260506080938 51 0 0.0 0.0 0.00 0.00 0.00 96 1015.9
20260506080438 51 0 0.0 0.0 0.00 0.00 0.00 95 1015.9
20260506073432 52 0 0.0 0.0 0.00 0.00 0.00 95 1015.8
20260506072933 52 0 0.0 0.0 0.00 0.00 0.00 95 1015.8
20260506072433 52 0 0.0 0.0 0.00 0.00 0.00 95 1015.8
20260506072224 52 0 0.0 0.0 0.00 0.00 0.00 95 1015.9
20260506071433 52 0 0.0 0.0 0.00 0.00 0.00 95 1015.8
20260506070933 52 0 0.0 0.0 0.00 0.00 0.00 95 1015.8
20260506070433 52 0 0.0 0.0 0.00 0.00 0.00 95 1015.7
20260506062429 53 0 0.0 0.0 0.00 0.00 0.00 94 1015.3
20260506061929 53 0 0.0 0.0 0.00 0.00 0.00 94 1015.3
20260506061429 53 0 0.0 0.0 0.00 0.00 0.00 94 1015.2
20260506060930 53 0 0.0 0.0 0.00 0.00 0.00 93 1015.2
20260506060428 53 0 0.0 0.0 0.00 0.00 0.00 93 1015.1
20260506050925 55 0 0.0 0.0 0.00 0.00 0.00 90 1014.8
20260506050425 55 0 0.0 0.0 0.00 0.00 0.00 90 1014.7
20260506044924 55 0 0.0 0.0 0.00 0.00 0.00 90 1014.7
20260506044424 55 0 0.0 0.0 0.00 0.00 0.00 90 1014.7
20260506043924 56 0 0.0 0.0 0.00 0.00 0.00 90 1014.6
20260506043424 56 0 0.0 0.0 0.00 0.00 0.00 89 1014.6
20260506042923 56 0 0.0 0.0 0.00 0.00 0.00 89 1014.6
20260506042424 56 0 0.0 0.0 0.00 0.00 0.00 89 1014.6
20260506041924 56 0 0.0 0.0 0.00 0.00 0.00 88 1014.6
20260506041425 56 0 0.0 0.0 0.00 0.00 0.00 88 1014.5
20260506040924 57 0 0.0 0.0 0.00 0.00 0.00 87 1014.6
20260506040714 57 0 0.0 0.0 0.00 0.00 0.00 87 1014.5
20260506040215 57 0 0.0 0.0 0.00 0.00 0.00 87 1014.5
20260506035421 57 0 0.0 0.0 0.00 0.00 0.00 86 1014.4
20260506034921 58 0 0.0 0.0 0.00 0.00 0.00 85 1014.4
20260506034713 58 0 0.0 0.0 0.00 0.00 0.00 85 1014.4
20260506033920 58 0 0.0 0.0 0.00 0.00 0.00 84 1014.3
20260506033713 59 0 0.0 0.0 0.00 0.00 0.00 83 1014.2
20260506032921 59 0 0.0 0.0 0.00 0.00 0.00 83 1014.2
20260506032422 59 0 0.0 0.0 0.00 0.00 0.00 82 1014.1
20260506031921 60 0 0.0 0.0 0.00 0.00 0.00 81 1014.1
20260506031421 60 0 0.0 0.0 0.00 0.00 0.00 80 1014.1
20260506030921 61 0 0.0 0.0 0.00 0.00 0.00 79 1014.1
20260506030421 61 0 0.0 0.0 0.00 0.00 0.00 77 1014.1
20260506025919 62 0 0.0 0.0 0.00 0.00 0.00 74 1014.0
20260506025420 62 0 0.0 0.0 0.00 0.00 0.00 74 1014.0
20260506024920 62 0 0.0 0.0 0.00 0.00 0.00 74 1014.0
20260506024420 63 0 0.0 1.7 0.00 0.00 0.00 73 1013.9
20260506023916 63 0 0.0 1.7 0.00 0.00 0.00 73 1013.9
20260506023416 63 0 0.0 2.6 0.00 0.00 0.00 71 1013.9
20260506022918 63 0 0.0 2.6 0.00 0.00 0.00 71 1013.8
20260506022417 64 0 0.0 2.6 0.00 0.00 0.00 70 1013.9
20260506021916 64 0 0.0 1.7 0.00 0.00 0.00 70 1013.9
20260506021416 64 0 0.9 2.6 0.00 0.00 0.00 70 1013.9
20260506021203 64 170 0.9 2.6 0.00 0.00 0.00 69 1013.9
20260506020415 64 187 0.0 2.6 0.00 0.00 0.00 68 1013.9
20260506015914 64 0 0.0 0.0 0.00 0.00 0.00 69 1013.9
20260506015414 64 0 0.0 1.7 0.00 0.00 0.00 69 1013.9
20260506014915 64 0 0.0 1.7 0.00 0.00 0.00 68 1013.9
20260506014415 64 0 0.0 0.0 0.00 0.00 0.00 68 1013.9
20260506013914 64 0 0.0 0.0 0.00 0.00 0.00 68 1013.9
20260506013415 64 0 0.0 2.6 0.00 0.00 0.00 68 1013.9